When you browse on this site, cookies collect data to enhance your experience and personalize the content and advertising you see.
Visit our Privacy Policy to learn more. By continuing to use the site, you agree to this use of cookies and data.

Hourly Weather Orsha

Today, 14 July, Tuesday

Time Temperature Precipitation Wind Pressure Humidity
00:00 +10°C° 0 mm 3 mps 744 mmHg 91%
01:00 +10°C° 0 mm 3 mps 744 mmHg 91%
02:00 +10°C° 0 mm 3 mps 744 mmHg 95%
03:00 +10°C° 0 mm 4 mps 744 mmHg 94%
04:00 +10°C° 0 mm 4 mps 744 mmHg 93%
05:00 +10°C° 0 mm 4 mps 744 mmHg 92%
06:00 +11°C° 0 mm 4 mps 744 mmHg 89%
07:00 +13°C° 0 mm 4 mps 744 mmHg 86%
08:00 +14°C° 0 mm 5 mps 744 mmHg 84%
09:00 +15°C° 0 mm 5 mps 744 mmHg 79%
10:00 +17°C° 0 mm 5 mps 744 mmHg 73%
11:00 +19°C° 0 mm 6 mps 744 mmHg 68%
12:00 +19°C° 0 mm 6 mps 744 mmHg 67%
13:00 +19°C° 0 mm 6 mps 743 mmHg 67%
14:00 +20°C° 0 mm 6 mps 743 mmHg 66%
15:00 +19°C° 0 mm 6 mps 743 mmHg 68%
16:00 +19°C° 0 mm 5 mps 743 mmHg 71%
17:00 +19°C° 0 mm 5 mps 742 mmHg 74%
18:00 +18°C° 0 mm 4 mps 742 mmHg 75%
19:00 +17°C° 0 mm 4 mps 742 mmHg 76%
20:00 +15°C° 0 mm 4 mps 742 mmHg 77%
21:00 +14°C° 0 mm 5 mps 741 mmHg 75%
22:00 +14°C° 0 mm 5 mps 741 mmHg 74%
23:00 +14°C° 0 mm 5 mps 741 mmHg 72%

Tomorrow, 15 July, Wednesday

Time Temperature Precipitation Wind Pressure Humidity
00:00 +13°C° 0 mm 5 mps 741 mmHg 72%
01:00 +13°C° 0 mm 5 mps 741 mmHg 73%
02:00 +13°C° 0 mm 6 mps 741 mmHg 73%
03:00 +11°C° 0 mm 6 mps 741 mmHg 75%
04:00 +11°C° 0 mm 6 mps 740 mmHg 77%
05:00 +11°C° 0 mm 6 mps 740 mmHg 79%
06:00 +11°C° 0 mm 6 mps 740 mmHg 78%
07:00 +11°C° 0 mm 7 mps 740 mmHg 77%
08:00 +12°C° 0 mm 7 mps 740 mmHg 76%
09:00 +12°C° 0.4 mm 7 mps 740 mmHg 79%
10:00 +12°C° 0.4 mm 7 mps 740 mmHg 81%
11:00 +11°C° 0.4 mm 7 mps 740 mmHg 83%
12:00 +11°C° 0.5 mm 7 mps 740 mmHg 85%
13:00 +11°C° 0.5 mm 6 mps 741 mmHg 87%
14:00 +11°C° 0.5 mm 6 mps 741 mmHg 90%
15:00 +12°C° 0.2 mm 5 mps 741 mmHg 90%
16:00 +12°C° 0.2 mm 4 mps 741 mmHg 90%
17:00 +13°C° 0.2 mm 3 mps 741 mmHg 90%
18:00 +12°C° 0 mm 3 mps 742 mmHg 89%
19:00 +13°C° 0 mm 2 mps 742 mmHg 87%
20:00 +13°C° 0 mm 2 mps 742 mmHg 86%
21:00 +13°C° 0 mm 2 mps 742 mmHg 87%
22:00 +13°C° 0 mm 2 mps 742 mmHg 88%
23:00 +11°C° 0 mm 3 mps 742 mmHg 89%

Day after tomorrow, 16 July, Thursday

Time Temperature Precipitation Wind Pressure Humidity
00:00 +11°C° 0 mm 3 mps 742 mmHg 90%
01:00 +11°C° 0 mm 3 mps 742 mmHg 91%
02:00 +10°C° 0 mm 3 mps 742 mmHg 93%
03:00 +10°C° 0 mm 3 mps 742 mmHg 93%
04:00 +11°C° 0 mm 4 mps 741 mmHg 93%
05:00 +11°C° 0 mm 4 mps 741 mmHg 93%
06:00 +12°C° 0 mm 4 mps 741 mmHg 89%
07:00 +14°C° 0 mm 4 mps 742 mmHg 85%
08:00 +15°C° 0 mm 4 mps 742 mmHg 81%
09:00 +18°C° 0 mm 4 mps 742 mmHg 76%
10:00 +19°C° 0 mm 4 mps 742 mmHg 72%
11:00 +20°C° 0 mm 4 mps 742 mmHg 67%
12:00 +20°C° 0 mm 4 mps 742 mmHg 66%
13:00 +21°C° 0 mm 4 mps 742 mmHg 65%
14:00 +21°C° 0 mm 4 mps 742 mmHg 64%
15:00 +21°C° 0 mm 3 mps 742 mmHg 66%
16:00 +21°C° 0 mm 3 mps 742 mmHg 68%
17:00 +21°C° 0 mm 3 mps 742 mmHg 70%
18:00 +20°C° 0 mm 2 mps 742 mmHg 73%
19:00 +18°C° 0 mm 2 mps 742 mmHg 76%
20:00 +16°C° 0 mm 2 mps 742 mmHg 78%
21:00 +16°C° 0 mm 2 mps 742 mmHg 79%
22:00 +15°C° 0 mm 2 mps 742 mmHg 79%
23:00 +15°C° 0 mm 2 mps 742 mmHg 80%

17 July, Friday

Time Temperature Precipitation Wind Pressure Humidity
00:00 +14°C° 0 mm 2 mps 742 mmHg 82%
01:00 +14°C° 0 mm 1 mps 742 mmHg 84%
02:00 +13°C° 0 mm 1 mps 742 mmHg 86%
03:00 +13°C° 0 mm 1 mps 742 mmHg 86%
04:00 +13°C° 0 mm 1 mps 742 mmHg 87%
05:00 +13°C° 0 mm 1 mps 742 mmHg 87%
06:00 +15°C° 0 mm 1 mps 742 mmHg 83%
07:00 +18°C° 0 mm 1 mps 743 mmHg 79%
08:00 +20°C° 0 mm 1 mps 743 mmHg 75%
09:00 +21°C° 0 mm 1 mps 743 mmHg 71%
10:00 +22°C° 0 mm 1 mps 743 mmHg 67%
11:00 +23°C° 0 mm 1 mps 743 mmHg 63%
12:00 +24°C° 0 mm 1 mps 743 mmHg 62%
13:00 +24°C° 0 mm 1 mps 743 mmHg 61%
14:00 +24°C° 0 mm 1 mps 743 mmHg 59%
15:00 +24°C° 0 mm 1 mps 743 mmHg 61%
16:00 +24°C° 0 mm 2 mps 743 mmHg 64%
17:00 +24°C° 0 mm 2 mps 743 mmHg 66%
18:00 +21°C° 0 mm 2 mps 743 mmHg 70%
19:00 +21°C° 0 mm 1 mps 743 mmHg 75%
20:00 +19°C° 0 mm 1 mps 744 mmHg 79%
21:00 +18°C° 0 mm 1 mps 744 mmHg 81%
22:00 +18°C° 0 mm 1 mps 744 mmHg 82%
23:00 +16°C° 0 mm 1 mps 744 mmHg 83%

18 July, Saturday

Time Temperature Precipitation Wind Pressure Humidity
00:00 +16°C° 0 mm 1 mps 744 mmHg 84%
01:00 +15°C° 0 mm 1 mps 745 mmHg 85%
02:00 +15°C° 0 mm 1 mps 745 mmHg 86%
03:00 +15°C° 0 mm 1 mps 745 mmHg 86%
04:00 +15°C° 0 mm 1 mps 745 mmHg 87%
05:00 +15°C° 0 mm 2 mps 745 mmHg 87%
06:00 +17°C° 0 mm 2 mps 746 mmHg 85%
07:00 +18°C° 0 mm 2 mps 746 mmHg 82%
08:00 +20°C° 0 mm 2 mps 746 mmHg 79%
09:00 +21°C° 0 mm 3 mps 746 mmHg 75%
10:00 +22°C° 0 mm 3 mps 746 mmHg 71%
11:00 +24°C° 0 mm 3 mps 746 mmHg 66%
12:00 +24°C° 0 mm 3 mps 746 mmHg 65%
13:00 +24°C° 0 mm 3 mps 746 mmHg 63%
14:00 +25°C° 0 mm 3 mps 746 mmHg 62%
15:00 +24°C° 0 mm 2 mps 746 mmHg 65%
16:00 +24°C° 0 mm 2 mps 746 mmHg 69%
17:00 +24°C° 0 mm 2 mps 746 mmHg 72%
18:00 +21°C° 0 mm 2 mps 746 mmHg 73%
19:00 +20°C° 0 mm 2 mps 746 mmHg 74%
20:00 +19°C° 0 mm 2 mps 746 mmHg 75%
21:00 +18°C° 0 mm 2 mps 747 mmHg 76%
22:00 +17°C° 0 mm 2 mps 747 mmHg 76%
23:00 +17°C° 0 mm 2 mps 747 mmHg 76%

19 July, Sunday

Time Temperature Precipitation Wind Pressure Humidity
00:00 +16°C° 0 mm 2 mps 747 mmHg 77%
01:00 +16°C° 0 mm 2 mps 747 mmHg 77%
02:00 +15°C° 0 mm 2 mps 747 mmHg 78%
03:00 +15°C° 0 mm 2 mps 747 mmHg 79%
04:00 +15°C° 0 mm 2 mps 747 mmHg 81%
05:00 +15°C° 0 mm 2 mps 747 mmHg 83%
06:00 +17°C° 0 mm 2 mps 747 mmHg 80%
07:00 +18°C° 0 mm 2 mps 747 mmHg 78%
08:00 +20°C° 0 mm 2 mps 747 mmHg 75%
09:00 +21°C° 0 mm 2 mps 747 mmHg 71%
10:00 +22°C° 0 mm 3 mps 747 mmHg 68%
11:00 +24°C° 0 mm 3 mps 747 mmHg 65%
12:00 +25°C° 0 mm 3 mps 746 mmHg 64%
13:00 +25°C° 0 mm 3 mps 746 mmHg 63%
14:00 +25°C° 0 mm 3 mps 746 mmHg 62%
15:00 +25°C° 0 mm 3 mps 745 mmHg 65%
16:00 +25°C° 0 mm 3 mps 745 mmHg 67%
17:00 +25°C° 0 mm 3 mps 745 mmHg 69%
18:00 +23°C° 0 mm 2 mps 745 mmHg 73%
19:00 +21°C° 0 mm 2 mps 745 mmHg 77%
20:00 +19°C° 0 mm 2 mps 744 mmHg 81%
21:00 +18°C° 0 mm 2 mps 744 mmHg 81%
22:00 +17°C° 0 mm 2 mps 744 mmHg 82%
23:00 +17°C° 0 mm 2 mps 744 mmHg 83%
Show more